Weather in Mazeyka

Russia / Lipetsk Oblast     52°05′19″N   40°24′39″E
temp.,
°C
wind,
m/s
gust,
m/s
humid.,
%
clouds,
%
prec.,
mm/h
press.,
hPa
HPBL,
m
14 april, wed
wed1400:00+12se4115640 0.0 1023227
03:00+10se376468 0.0 1023127
06:00+8ese4869100 0.0 1022139
09:00+14ese5947100 0.0 1021398
12:00+18se68333 0.0 10191052
15:00+20se68277 0.0 10182083
18:00+18ese3739100 0.0 1017160
21:00+13ese41252100 0.0 1018208
15 april, thu
thu1500:00+12ese41056100 0.0 1016178
03:00+11se3564100 0.0 101688
06:00+11ese2263100 0.0 101520
09:00+14w1153100 0.0 1016224
12:00+18ene434386 0.0 10141107
15:00+20se343599 0.0 10132630
18:00+18e234840 0.0 101373
21:00+15s236073 0.0 101448
16 april, fri
fri1600:00+14sw2264100 0.0 101434
03:00+13wsw12656 0.0 101416
06:00+12sw237086 0.0 101546
09:00+15s235612 0.0 1016511
12:00+18s3549100 0.2 10161472
15:00+18s574684 0.6 10161826
18:00+17se345471 0.1 1016225
21:00+11e347619 0.7 101769
17 april, sat
sat1700:00+11sse228499 0.0 101827
03:00+10ene2286100 0.0 101818
06:00+10w1188100 0.1 101932
09:00+14ese7106099 0.1 1016679
12:00+15se5664100 0.3 1019952
15:00+15s3462100 1.5 10201045
18:00+10wsw1191100 4.6 1022171
21:00+10w2294100 8.0 1022159
18 april, sun
sun1800:00+9nnw119392 0.3 102330
03:00+10e488697 0.5 1024507
06:00+9ene379083 0.3 1025378
09:00+9e6979100 0.6 1026479
12:00+9ese597495 1.1 1027520
15:00+15ene67398 0.0 10261909
18:00+11sse3569100 0.0 1027361
21:00+9sse247696 0.0 102893